Date_Time,Julian_Date,Latitude,Longitude,Instrument_Depth,U,V,Speed,Direction
(yyyy-mm-dd hh:mn:ss UTC),(JD),(+ deg. North),(+ deg. East),(m),(cm/s),(cm/s),(cm/s),(deg True)
1985-05-06 06:12:00 UTC,2446191.758333,26.2417,-83.2217,0017,0.28,-1.18,1.2128,166.6513
1985-05-06 06:42:00 UTC,2446191.779167,26.2417,-83.2217,0017,0.15,-0.58,0.5991,165.4998
1985-05-06 07:12:00 UTC,2446191.800000,26.2417,-83.2217,0017,-0.03,-0.20,0.2022,188.5308
1985-05-06 07:42:00 UTC,2446191.820833,26.2417,-83.2217,0017,-0.15,0.17,0.2267,318.5764
1985-05-06 08:12:00 UTC,2446191.841667,26.2417,-83.2217,0017,0.45,-1.32,1.3946,161.1753
1985-05-06 08:42:00 UTC,2446191.862500,26.2417,-83.2217,0017,0.35,-1.15,1.2021,163.0725
1985-05-06 09:12:00 UTC,2446191.883333,26.2417,-83.2217,0017,-0.50,0.50,0.7071,315.0000
1985-05-06 09:42:00 UTC,2446191.904167,26.2417,-83.2217,0017,3.30,-4.88,5.8910,145.9323
1985-05-06 10:12:00 UTC,2446191.925000,26.2417,-83.2217,0017,3.13,-4.93,5.8397,147.5890
1985-05-06 10:42:00 UTC,2446191.945833,26.2417,-83.2217,0017,6.35,-5.35,8.3033,130.1148
1985-05-06 11:12:00 UTC,2446191.966667,26.2417,-83.2217,0017,12.60,-7.55,14.6889,120.9303
1985-05-06 11:42:00 UTC,2446191.987500,26.2417,-83.2217,0017,11.03,-8.35,13.8341,127.1267
1985-05-06 12:12:00 UTC,2446192.008333,26.2417,-83.2217,0017,17.05,-11.35,20.4823,123.6513
1985-05-06 12:42:00 UTC,2446192.029167,26.2417,-83.2217,0017,18.55,-12.73,22.4979,124.4600
1985-05-06 13:12:00 UTC,2446192.050000,26.2417,-83.2217,0017,19.85,-13.93,24.2501,125.0598
1985-05-06 13:42:00 UTC,2446192.070833,26.2417,-83.2217,0017,21.70,-17.57,27.9212,128.9963
1985-05-06 14:12:00 UTC,2446192.091667,26.2417,-83.2217,0017,23.70,-20.50,31.3359,130.8591
1985-05-06 14:42:00 UTC,2446192.112500,26.2417,-83.2217,0017,22.43,-19.40,29.6558,130.8569
1985-05-06 15:12:00 UTC,2446192.133333,26.2417,-83.2217,0017,23.53,-24.38,33.8828,136.0164
1985-05-06 15:42:00 UTC,2446192.154167,26.2417,-83.2217,0017,21.40,-27.73,35.0273,142.3416
1985-05-06 16:12:00 UTC,2446192.175000,26.2417,-83.2217,0017,17.83,-29.80,34.7268,149.1070
1985-05-06 16:42:00 UTC,2446192.195833,26.2417,-83.2217,0017,13.05,-34.85,37.2132,159.4710
1985-05-06 17:12:00 UTC,2446192.216667,26.2417,-83.2217,0017,2.43,-32.60,32.6904,175.7371
1985-05-06 17:42:00 UTC,2446192.237500,26.2417,-83.2217,0017,-1.68,-33.75,33.7918,182.8497
1985-05-06 18:12:00 UTC,2446192.258333,26.2417,-83.2217,0017,-4.48,-36.60,36.8732,186.9785
1985-05-06 18:42:00 UTC,2446192.279167,26.2417,-83.2217,0017,-8.78,-37.20,38.2221,193.2800
1985-05-06 19:12:00 UTC,2446192.300000,26.2417,-83.2217,0017,-14.20,-35.60,38.3275,201.7459
1985-05-06 19:42:00 UTC,2446192.320833,26.2417,-83.2217,0017,-19.00,-35.08,39.8949,208.4408
1985-05-06 20:12:00 UTC,2446192.341667,26.2417,-83.2217,0017,-20.57,-31.95,37.9990,212.7742
1985-05-06 20:42:00 UTC,2446192.362500,26.2417,-83.2217,0017,-25.78,-30.35,39.8212,220.3454
1985-05-06 21:12:00 UTC,2446192.383333,26.2417,-83.2217,0017,-28.73,-25.55,38.4476,228.3528
1985-05-06 21:42:00 UTC,2446192.404167,26.2417,-83.2217,0017,-29.90,-20.95,36.5091,234.9823
1985-05-06 22:12:00 UTC,2446192.425000,26.2417,-83.2217,0017,-31.35,-19.60,36.9727,237.9864
1985-05-06 22:42:00 UTC,2446192.445833,26.2417,-83.2217,0017,-30.98,-14.98,34.4116,244.1945
1985-05-06 23:12:00 UTC,2446192.466667,26.2417,-83.2217,0017,-30.18,-10.80,32.0542,250.3101
1985-05-06 23:42:00 UTC,2446192.487500,26.2417,-83.2217,0017,-24.68,-9.20,26.3390,249.5560
1985-05-07 00:12:00 UTC,2446192.508333,26.2417,-83.2217,0017,-24.85,-4.50,25.2542,259.7357
1985-05-07 00:42:00 UTC,2446192.529167,26.2417,-83.2217,0017,-17.35,-0.70,17.3641,267.6896
1985-05-07 01:12:00 UTC,2446192.550000,26.2417,-83.2217,0017,-11.40,0.70,11.4215,273.5138
1985-05-07 01:42:00 UTC,2446192.570833,26.2417,-83.2217,0017,-7.40,2.48,7.8045,288.5278
1985-05-07 02:12:00 UTC,2446192.591667,26.2417,-83.2217,0017,-2.65,1.40,2.9971,297.8476
1985-05-07 02:42:00 UTC,2446192.612500,26.2417,-83.2217,0017,-0.85,1.08,1.3744,321.7960
1985-05-07 03:12:00 UTC,2446192.633333,26.2417,-83.2217,0017,-0.23,0.55,0.5962,337.3062
1985-05-07 03:42:00 UTC,2446192.654167,26.2417,-83.2217,0017,0.00,0.00,0.0000,0.0000
1985-05-07 04:12:00 UTC,2446192.675000,26.2417,-83.2217,0017,0.00,0.15,0.1500,0.0000
1985-05-07 04:42:00 UTC,2446192.695833,26.2417,-83.2217,0017,0.70,0.95,1.1800,36.3843
1985-05-07 05:12:00 UTC,2446192.716667,26.2417,-83.2217,0017,2.95,2.85,4.1018,45.9878
1985-05-07 05:42:00 UTC,2446192.737500,26.2417,-83.2217,0017,2.23,2.70,3.5018,39.5542
1985-05-07 06:12:00 UTC,2446192.758333,26.2417,-83.2217,0017,2.00,2.13,2.9218,43.1971
1985-05-07 06:42:00 UTC,2446192.779167,26.2417,-83.2217,0017,3.05,2.78,4.1269,47.6516
1985-05-07 07:12:00 UTC,2446192.800000,26.2417,-83.2217,0017,4.48,-1.53,4.7341,108.8559
1985-05-07 07:42:00 UTC,2446192.820833,26.2417,-83.2217,0017,1.85,-2.33,2.9751,141.5507
1985-05-07 08:12:00 UTC,2446192.841667,26.2417,-83.2217,0017,3.33,-3.43,4.7806,135.8475
1985-05-07 08:42:00 UTC,2446192.862500,26.2417,-83.2217,0017,2.35,-5.53,6.0086,156.9767
1985-05-07 09:12:00 UTC,2446192.883333,26.2417,-83.2217,0017,5.15,-8.73,10.1358,149.4628
1985-05-07 09:42:00 UTC,2446192.904167,26.2417,-83.2217,0017,3.13,-7.78,8.3860,158.0844
1985-05-07 10:12:00 UTC,2446192.925000,26.2417,-83.2217,0017,2.58,-11.65,11.9323,167.5128
1985-05-07 10:42:00 UTC,2446192.945833,26.2417,-83.2217,0017,2.83,-14.05,14.3322,168.6116
1985-05-07 11:12:00 UTC,2446192.966667,26.2417,-83.2217,0017,1.25,-14.30,14.3545,175.0043
1985-05-07 11:42:00 UTC,2446192.987500,26.2417,-83.2217,0017,7.05,-19.25,20.5004,159.8856
1985-05-07 12:12:00 UTC,2446193.008333,26.2417,-83.2217,0017,9.50,-19.65,21.8260,154.1981
1985-05-07 12:42:00 UTC,2446193.029167,26.2417,-83.2217,0017,9.65,-21.30,23.3840,155.6270
1985-05-07 13:12:00 UTC,2446193.050000,26.2417,-83.2217,0017,10.70,-23.35,25.6849,155.3806
1985-05-07 13:42:00 UTC,2446193.070833,26.2417,-83.2217,0017,17.28,-26.90,31.9720,147.2841
1985-05-07 14:12:00 UTC,2446193.091667,26.2417,-83.2217,0017,19.33,-25.55,32.0383,142.8905
1985-05-07 14:42:00 UTC,2446193.112500,26.2417,-83.2217,0017,19.33,-27.73,33.8024,145.1205
1985-05-07 15:12:00 UTC,2446193.133333,26.2417,-83.2217,0017,14.03,-29.70,32.8471,154.7144
1985-05-07 15:42:00 UTC,2446193.154167,26.2417,-83.2217,0017,16.40,-32.18,36.1180,152.9951
1985-05-07 16:12:00 UTC,2446193.175000,26.2417,-83.2217,0017,21.75,-31.58,38.3453,145.4438
1985-05-07 16:42:00 UTC,2446193.195833,26.2417,-83.2217,0017,17.53,-32.28,36.7328,151.4953
1985-05-07 17:12:00 UTC,2446193.216667,26.2417,-83.2217,0017,18.10,-34.10,38.6060,152.0410
1985-05-07 17:42:00 UTC,2446193.237500,26.2417,-83.2217,0017,20.58,-34.80,40.4299,149.4008
1985-05-07 18:12:00 UTC,2446193.258333,26.2417,-83.2217,0017,15.93,-37.93,41.1394,157.2184
1985-05-07 18:42:00 UTC,2446193.279167,26.2417,-83.2217,0017,11.63,-39.88,41.5412,163.7420
1985-05-07 19:12:00 UTC,2446193.300000,26.2417,-83.2217,0017,8.25,-40.83,41.6551,168.5768
1985-05-07 19:42:00 UTC,2446193.320833,26.2417,-83.2217,0017,1.60,-41.28,41.3110,177.7803
1985-05-07 20:12:00 UTC,2446193.341667,26.2417,-83.2217,0017,-1.05,-39.30,39.3140,181.5304
1985-05-07 20:42:00 UTC,2446193.362500,26.2417,-83.2217,0017,-5.13,-37.60,37.9483,187.7693
1985-05-07 21:12:00 UTC,2446193.383333,26.2417,-83.2217,0017,-9.25,-36.25,37.4116,194.3148
1985-05-07 21:42:00 UTC,2446193.404167,26.2417,-83.2217,0017,-13.93,-32.68,35.5250,203.0864
1985-05-07 22:12:00 UTC,2446193.425000,26.2417,-83.2217,0017,-18.93,-31.55,36.7933,210.9638
1985-05-07 22:42:00 UTC,2446193.445833,26.2417,-83.2217,0017,-18.82,-30.05,35.4569,212.0585
1985-05-07 23:12:00 UTC,2446193.466667,26.2417,-83.2217,0017,-19.50,-28.23,34.3101,214.6350
1985-05-07 23:42:00 UTC,2446193.487500,26.2417,-83.2217,0017,-21.55,-24.38,32.5390,221.4742
1985-05-08 00:12:00 UTC,2446193.508333,26.2417,-83.2217,0017,-22.70,-19.23,29.7503,229.7309
1985-05-08 00:42:00 UTC,2446193.529167,26.2417,-83.2217,0017,-23.82,-15.93,28.6558,236.2268
1985-05-08 01:12:00 UTC,2446193.550000,26.2417,-83.2217,0017,-21.43,-10.58,23.8994,243.7244
1985-05-08 01:42:00 UTC,2446193.570833,26.2417,-83.2217,0017,-13.55,-6.45,15.0068,244.5449
1985-05-08 02:12:00 UTC,2446193.591667,26.2417,-83.2217,0017,-2.33,-1.98,3.0577,229.6426
1985-05-08 02:42:00 UTC,2446193.612500,26.2417,-83.2217,0017,0.25,0.75,0.7906,18.4349
1985-05-08 03:12:00 UTC,2446193.633333,26.2417,-83.2217,0017,-0.45,1.13,1.2163,338.2861
1985-05-08 03:42:00 UTC,2446193.654167,26.2417,-83.2217,0017,0.00,0.00,0.0000,0.0000
1985-05-08 04:12:00 UTC,2446193.675000,26.2417,-83.2217,0017,0.10,-0.15,0.1803,146.3099
1985-05-08 04:42:00 UTC,2446193.695833,26.2417,-83.2217,0017,-0.40,0.15,0.4272,290.5561
1985-05-08 05:12:00 UTC,2446193.716667,26.2417,-83.2217,0017,-0.63,0.53,0.8233,310.0729
1985-05-08 05:42:00 UTC,2446193.737500,26.2417,-83.2217,0017,2.18,-2.03,2.9788,132.9594
1985-05-08 06:12:00 UTC,2446193.758333,26.2417,-83.2217,0017,0.85,-0.83,1.1880,134.3179
1985-05-08 06:42:00 UTC,2446193.779167,26.2417,-83.2217,0017,7.83,-11.25,13.7066,145.1621
1985-05-08 07:12:00 UTC,2446193.800000,26.2417,-83.2217,0017,10.58,-13.50,17.1519,141.9141
1985-05-08 07:42:00 UTC,2446193.820833,26.2417,-83.2217,0017,10.38,-20.63,23.0942,153.2907
1985-05-08 08:12:00 UTC,2446193.841667,26.2417,-83.2217,0017,1.83,-3.30,3.7734,150.9896
1985-05-08 08:42:00 UTC,2446193.862500,26.2417,-83.2217,0017,1.93,-7.50,7.7443,165.5690
1985-05-08 09:12:00 UTC,2446193.883333,26.2417,-83.2217,0017,1.73,-10.65,10.7896,170.7734
1985-05-08 09:42:00 UTC,2446193.904167,26.2417,-83.2217,0017,-2.20,3.00,3.7202,323.7462
1985-05-08 10:12:00 UTC,2446193.925000,26.2417,-83.2217,0017,-0.80,1.73,1.9060,335.1829
1985-05-08 10:42:00 UTC,2446193.945833,26.2417,-83.2217,0017,-0.13,0.38,0.4016,341.1139
1985-05-08 11:12:00 UTC,2446193.966667,26.2417,-83.2217,0017,-0.45,-3.58,3.6082,187.1644
1985-05-08 11:42:00 UTC,2446193.987500,26.2417,-83.2217,0017,0.15,-2.98,2.9838,177.1184
1985-05-08 12:12:00 UTC,2446194.008333,26.2417,-83.2217,0017,1.53,-5.18,5.4012,163.5446
1985-05-08 12:42:00 UTC,2446194.029167,26.2417,-83.2217,0017,1.28,-3.35,3.5862,159.0887
1985-05-08 13:12:00 UTC,2446194.050000,26.2417,-83.2217,0017,5.00,-5.15,7.1779,135.8467
1985-05-08 13:42:00 UTC,2446194.070833,26.2417,-83.2217,0017,5.23,-7.30,8.9801,144.3807
1985-05-08 14:12:00 UTC,2446194.091667,26.2417,-83.2217,0017,9.25,-10.08,13.6810,137.4587
1985-05-08 14:42:00 UTC,2446194.112500,26.2417,-83.2217,0017,12.60,-12.75,17.9255,135.3390
1985-05-08 15:12:00 UTC,2446194.133333,26.2417,-83.2217,0017,18.60,-16.90,25.1311,132.2583
1985-05-08 15:42:00 UTC,2446194.154167,26.2417,-83.2217,0017,20.43,-19.57,28.2908,133.7683
1985-05-08 16:12:00 UTC,2446194.175000,26.2417,-83.2217,0017,21.80,-20.63,30.0139,133.4205
1985-05-08 16:42:00 UTC,2446194.195833,26.2417,-83.2217,0017,23.30,-24.18,33.5792,136.0618
1985-05-08 17:12:00 UTC,2446194.216667,26.2417,-83.2217,0017,26.18,-26.68,37.3793,135.5419
1985-05-08 17:42:00 UTC,2446194.237500,26.2417,-83.2217,0017,24.10,-29.63,38.1935,140.8763
1985-05-08 18:12:00 UTC,2446194.258333,26.2417,-83.2217,0017,21.48,-32.88,39.2745,146.8440
1985-05-08 18:42:00 UTC,2446194.279167,26.2417,-83.2217,0017,24.40,-37.03,44.3461,146.6181
1985-05-08 19:12:00 UTC,2446194.300000,26.2417,-83.2217,0017,21.30,-39.75,45.0971,151.8154
1985-05-08 19:42:00 UTC,2446194.320833,26.2417,-83.2217,0017,20.30,-43.35,47.8677,154.9072
1985-05-08 20:12:00 UTC,2446194.341667,26.2417,-83.2217,0017,16.15,-42.70,45.6521,159.2824
1985-05-08 20:42:00 UTC,2446194.362500,26.2417,-83.2217,0017,10.35,-44.30,45.4930,166.8496
1985-05-08 21:12:00 UTC,2446194.383333,26.2417,-83.2217,0017,3.55,-43.55,43.6945,175.3398
1985-05-08 21:42:00 UTC,2446194.404167,26.2417,-83.2217,0017,-3.48,-40.38,40.5297,184.9257
1985-05-08 22:12:00 UTC,2446194.425000,26.2417,-83.2217,0017,-5.28,-42.85,43.1741,187.0246
1985-05-08 22:42:00 UTC,2446194.445833,26.2417,-83.2217,0017,-7.53,-44.23,44.8664,189.6618
1985-05-08 23:12:00 UTC,2446194.466667,26.2417,-83.2217,0017,-8.13,-40.65,41.4550,191.3099
1985-05-08 23:42:00 UTC,2446194.487500,26.2417,-83.2217,0017,-12.23,-38.35,40.2529,197.6877
1985-05-09 00:12:00 UTC,2446194.508333,26.2417,-83.2217,0017,-15.83,-34.83,38.2586,204.4415
1985-05-09 00:42:00 UTC,2446194.529167,26.2417,-83.2217,0017,-11.80,-25.45,28.0525,204.8750
1985-05-09 01:12:00 UTC,2446194.550000,26.2417,-83.2217,0017,-8.88,-21.50,23.2617,202.4418
1985-05-09 01:42:00 UTC,2446194.570833,26.2417,-83.2217,0017,-6.93,-16.93,18.2934,202.2609
1985-05-09 02:12:00 UTC,2446194.591667,26.2417,-83.2217,0017,-3.95,-13.83,14.3830,195.9399
1985-05-09 02:42:00 UTC,2446194.612500,26.2417,-83.2217,0017,-1.18,-12.53,12.5854,185.3799
1985-05-09 03:12:00 UTC,2446194.633333,26.2417,-83.2217,0017,0.28,-8.98,8.9844,178.2141
1985-05-09 03:42:00 UTC,2446194.654167,26.2417,-83.2217,0017,3.33,-9.00,9.5963,159.6955
1985-05-09 04:12:00 UTC,2446194.675000,26.2417,-83.2217,0017,4.15,-7.95,8.9680,152.4349
1985-05-09 04:42:00 UTC,2446194.695833,26.2417,-83.2217,0017,4.60,-9.73,10.7626,154.6969
1985-05-09 05:12:00 UTC,2446194.716667,26.2417,-83.2217,0017,4.20,-10.53,11.3367,158.2549
1985-05-09 05:42:00 UTC,2446194.737500,26.2417,-83.2217,0017,3.30,-4.98,5.9741,146.4695
1985-05-09 06:12:00 UTC,2446194.758333,26.2417,-83.2217,0017,4.50,-9.10,10.1518,153.6873
1985-05-09 06:42:00 UTC,2446194.779167,26.2417,-83.2217,0017,3.80,-7.45,8.3632,152.9754
1985-05-09 07:12:00 UTC,2446194.800000,26.2417,-83.2217,0017,1.98,-5.00,5.3778,158.3964
1985-05-09 07:42:00 UTC,2446194.820833,26.2417,-83.2217,0017,1.10,-3.45,3.6211,162.3156
1985-05-09 08:12:00 UTC,2446194.841667,26.2417,-83.2217,0017,1.85,-5.65,5.9452,161.8698
1985-05-09 08:42:00 UTC,2446194.862500,26.2417,-83.2217,0017,1.45,-5.83,6.0076,166.0331
1985-05-09 09:12:00 UTC,2446194.883333,26.2417,-83.2217,0017,1.80,-7.55,7.7616,166.5904
1985-05-09 09:42:00 UTC,2446194.904167,26.2417,-83.2217,0017,0.35,-5.93,5.9403,176.6222
1985-05-09 10:12:00 UTC,2446194.925000,26.2417,-83.2217,0017,-0.45,-4.20,4.2240,186.1155
1985-05-09 10:42:00 UTC,2446194.945833,26.2417,-83.2217,0017,-0.15,-5.40,5.4021,181.5912
1985-05-09 11:12:00 UTC,2446194.966667,26.2417,-83.2217,0017,-0.25,-3.60,3.6087,183.9725
1985-05-09 11:42:00 UTC,2446194.987500,26.2417,-83.2217,0017,0.03,-3.60,3.6001,179.5225
1985-05-09 12:12:00 UTC,2446195.008333,26.2417,-83.2217,0017,0.35,-1.95,1.9812,169.8245
1985-05-09 12:42:00 UTC,2446195.029167,26.2417,-83.2217,0017,1.10,-2.13,2.3973,152.6867
1985-05-09 13:12:00 UTC,2446195.050000,26.2417,-83.2217,0017,2.28,-1.88,2.9551,129.5077
1985-05-09 13:42:00 UTC,2446195.070833,26.2417,-83.2217,0017,5.70,-4.38,7.1885,127.5394
1985-05-09 14:12:00 UTC,2446195.091667,26.2417,-83.2217,0017,9.35,-7.40,11.9240,128.3596
1985-05-09 14:42:00 UTC,2446195.112500,26.2417,-83.2217,0017,15.33,-11.40,19.1042,126.6360
1985-05-09 15:12:00 UTC,2446195.133333,26.2417,-83.2217,0017,19.25,-14.78,24.2695,127.5168
1985-05-09 15:42:00 UTC,2446195.154167,26.2417,-83.2217,0017,20.93,-17.30,27.1543,129.5759
1985-05-09 16:12:00 UTC,2446195.175000,26.2417,-83.2217,0017,21.93,-18.70,28.8204,130.4547
1985-05-09 16:42:00 UTC,2446195.195833,26.2417,-83.2217,0017,24.53,-22.52,33.2997,132.5538
1985-05-09 17:12:00 UTC,2446195.216667,26.2417,-83.2217,0017,22.93,-24.18,33.3235,136.5199
1985-05-09 17:42:00 UTC,2446195.237500,26.2417,-83.2217,0017,23.35,-24.88,34.1209,136.8170
1985-05-09 18:12:00 UTC,2446195.258333,26.2417,-83.2217,0017,19.10,-29.80,35.3956,147.3426
1985-05-09 18:42:00 UTC,2446195.279167,26.2417,-83.2217,0017,19.43,-29.80,35.5748,146.8951
1985-05-09 19:12:00 UTC,2446195.300000,26.2417,-83.2217,0017,17.23,-27.33,32.3079,147.7709
1985-05-09 19:42:00 UTC,2446195.320833,26.2417,-83.2217,0017,17.63,-31.93,36.4739,151.0949
1985-05-09 20:12:00 UTC,2446195.341667,26.2417,-83.2217,0017,15.33,-31.03,34.6103,153.7089
1985-05-09 20:42:00 UTC,2446195.362500,26.2417,-83.2217,0017,14.20,-33.75,36.6156,157.1815
1985-05-09 21:12:00 UTC,2446195.383333,26.2417,-83.2217,0017,11.48,-32.33,34.3077,160.4506
1985-05-09 21:42:00 UTC,2446195.404167,26.2417,-83.2217,0017,6.20,-33.78,34.3443,169.5997
1985-05-09 22:12:00 UTC,2446195.425000,26.2417,-83.2217,0017,4.28,-33.45,33.7227,172.7085
1985-05-09 22:42:00 UTC,2446195.445833,26.2417,-83.2217,0017,-1.23,-33.90,33.9223,182.0780
1985-05-09 23:12:00 UTC,2446195.466667,26.2417,-83.2217,0017,-5.28,-33.43,33.8444,188.9753
1985-05-09 23:42:00 UTC,2446195.487500,26.2417,-83.2217,0017,-12.00,-32.63,34.7666,200.1915
1985-05-10 00:12:00 UTC,2446195.508333,26.2417,-83.2217,0017,-12.60,-30.40,32.9077,202.5127
1985-05-10 00:42:00 UTC,2446195.529167,26.2417,-83.2217,0017,-9.03,-26.93,28.4036,198.5370
1985-05-10 01:12:00 UTC,2446195.550000,26.2417,-83.2217,0017,-8.93,-25.65,27.1600,199.1955
1985-05-10 01:42:00 UTC,2446195.570833,26.2417,-83.2217,0017,-13.50,-20.32,24.3957,213.5989
1985-05-10 02:12:00 UTC,2446195.591667,26.2417,-83.2217,0017,-14.48,-18.25,23.2966,218.4294
1985-05-10 02:42:00 UTC,2446195.612500,26.2417,-83.2217,0017,-10.30,-13.28,16.8062,217.7972
1985-05-10 03:12:00 UTC,2446195.633333,26.2417,-83.2217,0017,-9.50,-10.83,14.4062,221.2570
1985-05-10 03:42:00 UTC,2446195.654167,26.2417,-83.2217,0017,-7.45,-7.03,10.2432,226.6614
1985-05-10 04:12:00 UTC,2446195.675000,26.2417,-83.2217,0017,-2.70,-4.73,5.4464,209.7188
1985-05-10 04:42:00 UTC,2446195.695833,26.2417,-83.2217,0017,-1.13,-2.83,3.0473,201.7665
1985-05-10 05:12:00 UTC,2446195.716667,26.2417,-83.2217,0017,-0.25,-1.80,1.8173,187.9072
1985-05-10 05:42:00 UTC,2446195.737500,26.2417,-83.2217,0017,1.00,-2.18,2.3984,155.3583
1985-05-10 06:12:00 UTC,2446195.758333,26.2417,-83.2217,0017,0.93,-1.53,1.7905,148.7070
1985-05-10 06:42:00 UTC,2446195.779167,26.2417,-83.2217,0017,2.15,-2.08,2.9915,134.0519
1985-05-10 07:12:00 UTC,2446195.800000,26.2417,-83.2217,0017,2.88,-2.10,3.5643,126.0983
1985-05-10 07:42:00 UTC,2446195.820833,26.2417,-83.2217,0017,3.45,-4.08,5.3431,139.7825
1985-05-10 08:12:00 UTC,2446195.841667,26.2417,-83.2217,0017,1.23,-1.30,1.7897,136.5848
1985-05-10 08:42:00 UTC,2446195.862500,26.2417,-83.2217,0017,1.05,-0.93,1.4026,131.5318
1985-05-10 09:12:00 UTC,2446195.883333,26.2417,-83.2217,0017,1.38,-1.15,1.7964,129.8056
1985-05-10 09:42:00 UTC,2446195.904167,26.2417,-83.2217,0017,1.07,-0.83,1.3542,127.8008
1985-05-10 10:12:00 UTC,2446195.925000,26.2417,-83.2217,0017,2.43,-2.60,3.5588,136.9357
1985-05-10 10:42:00 UTC,2446195.945833,26.2417,-83.2217,0017,2.75,-3.93,4.7966,145.0178
1985-05-10 11:12:00 UTC,2446195.966667,26.2417,-83.2217,0017,2.43,-4.80,5.3800,153.1492
1985-05-10 11:42:00 UTC,2446195.987500,26.2417,-83.2217,0017,1.50,-3.25,3.5795,155.2249
1985-05-10 12:12:00 UTC,2446196.008333,26.2417,-83.2217,0017,1.90,-5.68,5.9894,161.5045
1985-05-10 12:42:00 UTC,2446196.029167,26.2417,-83.2217,0017,3.23,-6.40,7.1689,153.2205
1985-05-10 13:12:00 UTC,2446196.050000,26.2417,-83.2217,0017,3.50,-5.55,6.5614,147.7632
1985-05-10 13:42:00 UTC,2446196.070833,26.2417,-83.2217,0017,8.53,-13.70,16.1385,148.0925
1985-05-10 14:12:00 UTC,2446196.091667,26.2417,-83.2217,0017,10.73,-18.38,21.2828,149.7242
1985-05-10 14:42:00 UTC,2446196.112500,26.2417,-83.2217,0017,11.15,-19.50,22.4627,150.2393
1985-05-10 15:12:00 UTC,2446196.133333,26.2417,-83.2217,0017,11.70,-20.60,23.6907,150.4051
1985-05-10 15:42:00 UTC,2446196.154167,26.2417,-83.2217,0017,9.43,-21.58,23.5504,156.3957
1985-05-10 16:12:00 UTC,2446196.175000,26.2417,-83.2217,0017,10.35,-25.45,27.4741,157.8694
1985-05-10 16:42:00 UTC,2446196.195833,26.2417,-83.2217,0017,11.33,-29.98,32.0495,159.2975
1985-05-10 17:12:00 UTC,2446196.216667,26.2417,-83.2217,0017,11.80,-33.03,35.0745,160.3407
1985-05-10 17:42:00 UTC,2446196.237500,26.2417,-83.2217,0017,7.88,-33.03,33.9570,166.5817
1985-05-10 18:12:00 UTC,2446196.258333,26.2417,-83.2217,0017,6.40,-32.93,33.5462,169.0016
1985-05-10 18:42:00 UTC,2446196.279167,26.2417,-83.2217,0017,4.60,-30.00,30.3506,171.2825
1985-05-10 19:12:00 UTC,2446196.300000,26.2417,-83.2217,0017,5.50,-32.18,32.6466,170.3011
1985-05-10 19:42:00 UTC,2446196.320833,26.2417,-83.2217,0017,3.33,-33.45,33.6153,174.3148
1985-05-10 20:12:00 UTC,2446196.341667,26.2417,-83.2217,0017,2.88,-35.38,35.4970,175.3463
1985-05-10 20:42:00 UTC,2446196.362500,26.2417,-83.2217,0017,1.40,-35.90,35.9273,177.7667
1985-05-10 21:12:00 UTC,2446196.383333,26.2417,-83.2217,0017,-3.48,-37.10,37.2629,185.3587
1985-05-10 21:42:00 UTC,2446196.404167,26.2417,-83.2217,0017,-0.98,-38.00,38.0126,181.4773
1985-05-10 22:12:00 UTC,2446196.425000,26.2417,-83.2217,0017,-5.63,-38.18,38.5929,188.3884
1985-05-10 22:42:00 UTC,2446196.445833,26.2417,-83.2217,0017,-6.93,-36.75,37.3977,190.6790
1985-05-10 23:12:00 UTC,2446196.466667,26.2417,-83.2217,0017,-9.13,-38.68,39.7429,193.2810
1985-05-10 23:42:00 UTC,2446196.487500,26.2417,-83.2217,0017,-11.08,-35.98,37.6474,197.1162
1985-05-11 00:12:00 UTC,2446196.508333,26.2417,-83.2217,0017,-12.40,-33.95,36.1436,200.0644
1985-05-11 00:42:00 UTC,2446196.529167,26.2417,-83.2217,0017,-14.38,-31.93,35.0187,204.2449
1985-05-11 01:12:00 UTC,2446196.550000,26.2417,-83.2217,0017,-11.70,-28.30,30.6232,202.4616
1985-05-11 01:42:00 UTC,2446196.570833,26.2417,-83.2217,0017,-13.65,-26.15,29.4982,207.5641
1985-05-11 02:12:00 UTC,2446196.591667,26.2417,-83.2217,0017,-14.00,-24.65,28.3482,209.5945
1985-05-11 02:42:00 UTC,2446196.612500,26.2417,-83.2217,0017,-13.73,-24.73,28.2858,209.0389
1985-05-11 03:12:00 UTC,2446196.633333,26.2417,-83.2217,0017,-14.05,-22.25,26.3147,212.2708
1985-05-11 03:42:00 UTC,2446196.654167,26.2417,-83.2217,0017,-12.88,-18.45,22.5010,214.9190
1985-05-11 04:12:00 UTC,2446196.675000,26.2417,-83.2217,0017,-9.73,-17.57,20.0843,208.9770
1985-05-11 04:42:00 UTC,2446196.695833,26.2417,-83.2217,0017,-10.13,-16.82,19.6349,211.0589
1985-05-11 05:12:00 UTC,2446196.716667,26.2417,-83.2217,0017,-6.33,-12.25,13.7888,207.3270
1985-05-11 05:42:00 UTC,2446196.737500,26.2417,-83.2217,0017,-3.40,-7.05,7.8270,205.7466
1985-05-11 06:12:00 UTC,2446196.758333,26.2417,-83.2217,0017,-1.43,-4.60,4.8171,197.2689
1985-05-11 06:42:00 UTC,2446196.779167,26.2417,-83.2217,0017,-0.50,-3.18,3.2191,188.9356
1985-05-11 07:12:00 UTC,2446196.800000,26.2417,-83.2217,0017,0.25,-2.00,2.0156,172.8750
1985-05-11 07:42:00 UTC,2446196.820833,26.2417,-83.2217,0017,0.65,-1.68,1.8014,158.8483
1985-05-11 08:12:00 UTC,2446196.841667,26.2417,-83.2217,0017,0.95,-1.75,1.9912,151.5043
1985-05-11 08:42:00 UTC,2446196.862500,26.2417,-83.2217,0017,1.78,-2.40,2.9880,143.4369
1985-05-11 09:12:00 UTC,2446196.883333,26.2417,-83.2217,0017,3.53,-4.83,5.9825,143.8388
1985-05-11 09:42:00 UTC,2446196.904167,26.2417,-83.2217,0017,4.20,-5.83,7.1853,144.2306
1985-05-11 10:12:00 UTC,2446196.925000,26.2417,-83.2217,0017,4.95,-7.45,8.9446,146.3988
1985-05-11 10:42:00 UTC,2446196.945833,26.2417,-83.2217,0017,2.68,-7.30,7.7764,159.8406
1985-05-11 11:12:00 UTC,2446196.966667,26.2417,-83.2217,0017,5.38,-10.00,11.3554,151.7197
1985-05-11 11:42:00 UTC,2446196.987500,26.2417,-83.2217,0017,4.35,-11.75,12.5294,159.6848
1985-05-11 12:12:00 UTC,2446197.008333,26.2417,-83.2217,0017,5.53,-11.85,13.0768,154.9831
1985-05-11 12:42:00 UTC,2446197.029167,26.2417,-83.2217,0017,5.85,-13.72,14.9151,156.9073
1985-05-11 13:12:00 UTC,2446197.050000,26.2417,-83.2217,0017,5.88,-18.85,19.7458,162.6754
1985-05-11 13:42:00 UTC,2446197.070833,26.2417,-83.2217,0017,6.70,-20.85,21.9001,162.1855
1985-05-11 14:12:00 UTC,2446197.091667,26.2417,-83.2217,0017,5.88,-20.18,21.0192,163.7551
1985-05-11 14:42:00 UTC,2446197.112500,26.2417,-83.2217,0017,5.38,-21.23,21.9011,165.7797
1985-05-11 15:12:00 UTC,2446197.133333,26.2417,-83.2217,0017,6.28,-23.78,24.5953,165.2066
1985-05-11 15:42:00 UTC,2446197.154167,26.2417,-83.2217,0017,4.20,-24.52,24.8771,170.2802
1985-05-11 16:12:00 UTC,2446197.175000,26.2417,-83.2217,0017,4.43,-24.18,24.5825,169.6180
1985-05-11 16:42:00 UTC,2446197.195833,26.2417,-83.2217,0017,7.63,-26.68,27.7496,164.0404
1985-05-11 17:12:00 UTC,2446197.216667,26.2417,-83.2217,0017,10.08,-26.75,28.5862,159.3525
1985-05-11 17:42:00 UTC,2446197.237500,26.2417,-83.2217,0017,10.83,-26.13,28.2854,157.4876
1985-05-11 18:12:00 UTC,2446197.258333,26.2417,-83.2217,0017,11.43,-26.48,28.8416,156.6527